Change the Weather History Date:

Sunday, March 9, 2014

  Actual Average Record
Temperature  
Mean Temperature 56 °F -  
Max Temperature 66 °F 58 °F 68 °F (2015)
Min Temperature 46 °F 34 °F 28 °F (2012)
Degree Days  
Heating Degree Days 9    
Growing Degree Days 6 (Base 50)    
Moisture  
Dew Point 21 °F    
Average Humidity 30    
Maximum Humidity 62    
Minimum Humidity 12    
Precipitation  
Precipitation 0.00 in - - ()
Sea Level Pressure  
Sea Level Pressure 30.26 in    
Wind  
Wind Speed 12 mph (ESE)    
Max Wind Speed 24 mph    
Max Gust Speed 30 mph    
Visibility 10 miles    
Events      
Averages and records for this station are not official NWS values.
T = Trace of Precipitation, MM = Missing Value Source: NWS Daily Summary

Daily Weather History Graph

Daily Weather History Graph

Search for Another Location

Airport or City:

Trip Planner

Search our weather history database for the weather conditions in past years. The results will help you decide how hot, cold, wet, or windy it might be!

Date:

Astronomy

Mar. 09, 2014 Rise Set
Actual Time 7:12 AM PDT 6:56 PM PDT
Civil Twilight 6:47 AM PDT 7:21 PM PDT
Nautical Twilight 6:17 AM PDT 7:51 PM PDT
Astronomical Twilight 5:48 AM PDT 8:20 PM PDT
Moon 1:02 PM PDT (3/9) 3:32 AM PDT (3/9)
Length of Visible Light 12h 34m
Length of Day
11h 43m
First Quarter, 62% of the Moon is Illuminated
Mar 9
First Quarter
Mar 16
Full
Mar 23
Last Quarter
Mar 30
New
Apr 7
First Quarter

Hourly Weather History & Observations

Time (PDT) Temp. Windchill Dew Point Humidity Pressure Visibility Wind Dir Wind Speed Gust Speed Precip Events Conditions
12:15 AM 46.4 °F 41.5 °F 23.0 °F 40% 30.30 in 10.0 mi ESE 10.4 mph - N/A   Clear
12:35 AM 46.4 °F 41.5 °F 21.2 °F 37% 30.30 in 10.0 mi ESE 10.4 mph - N/A   Clear
12:55 AM 46.4 °F 41.5 °F 21.2 °F 37% 30.30 in 10.0 mi ESE 10.4 mph - N/A   Clear
1:15 AM 48.2 °F - 21.2 °F 34% 30.30 in 10.0 mi ESE 11.5 mph - N/A   Clear
1:35 AM 48.2 °F - 19.4 °F 32% 30.30 in 10.0 mi East 11.5 mph - N/A   Clear
1:55 AM 48.2 °F - 19.4 °F 32% 30.29 in 10.0 mi ESE 11.5 mph - N/A   Clear
3:15 AM 48.2 °F - 19.4 °F 32% 30.28 in 10.0 mi ESE 12.7 mph - N/A   Clear
3:35 AM 48.2 °F - 19.4 °F 32% 30.28 in 10.0 mi ESE 13.8 mph - N/A   Clear
3:55 AM 48.2 °F - 19.4 °F 32% 30.28 in 10.0 mi ESE 10.4 mph - N/A   Clear
4:15 AM 48.2 °F - 19.4 °F 32% 30.28 in 10.0 mi East 10.4 mph - N/A   Clear
4:35 AM 50.0 °F - 19.4 °F 30% 30.28 in 10.0 mi East 10.4 mph - N/A   Clear
4:55 AM 50.0 °F - 19.4 °F 30% 30.28 in 10.0 mi East 8.1 mph - N/A   Clear
5:15 AM 48.2 °F - 19.4 °F 32% 30.28 in 10.0 mi ESE 8.1 mph - N/A   Clear
5:35 AM 50.0 °F - 17.6 °F 28% 30.28 in 10.0 mi East 10.4 mph - N/A   Clear
5:55 AM 50.0 °F - 17.6 °F 28% 30.27 in 10.0 mi ESE 13.8 mph 17.3 mph N/A   Clear
6:15 AM 48.2 °F - 19.4 °F 32% 30.27 in 10.0 mi ESE 11.5 mph - N/A   Clear
6:35 AM 48.2 °F - 19.4 °F 32% 30.28 in 10.0 mi ESE 10.4 mph - N/A   Clear
6:55 AM 48.2 °F - 21.2 °F 34% 30.28 in 10.0 mi SE 11.5 mph - N/A   Clear
7:15 AM 48.2 °F - 19.4 °F 32% 30.28 in 10.0 mi ESE 12.7 mph - N/A   Clear
7:35 AM 50.0 °F - 19.4 °F 30% 30.28 in 10.0 mi ESE 15.0 mph - N/A   Clear
7:55 AM 50.0 °F - 19.4 °F 30% 30.29 in 10.0 mi ESE 15.0 mph - N/A   Clear
8:15 AM 51.8 °F - 19.4 °F 28% 30.28 in 10.0 mi SE 16.1 mph - N/A   Clear
8:35 AM 53.6 °F - 19.4 °F 26% 30.29 in 10.0 mi SE 17.3 mph - N/A   Clear
8:55 AM 57.2 °F - 19.4 °F 23% 30.30 in 10.0 mi SE 17.3 mph - N/A   Clear
9:15 AM 57.2 °F - 15.8 °F 20% 30.29 in 10.0 mi ESE 21.9 mph 27.6 mph N/A   Clear
9:35 AM 59.0 °F - 15.8 °F 19% 30.30 in 10.0 mi ESE 21.9 mph 27.6 mph N/A   Clear
9:55 AM 57.2 °F - 15.8 °F 20% 30.30 in 10.0 mi ESE 18.4 mph 26.5 mph N/A   Clear
10:15 AM 57.2 °F - 14.0 °F 18% 30.30 in 10.0 mi ESE 21.9 mph 27.6 mph N/A   Clear
10:35 AM 59.0 °F - 15.8 °F 19% 30.30 in 9.0 mi ESE 21.9 mph 29.9 mph N/A   Clear
10:55 AM 60.8 °F - 15.8 °F 17% 30.30 in 9.0 mi ESE 24.2 mph 28.8 mph N/A   Clear
11:15 AM 60.8 °F - 15.8 °F 17% 30.30 in 9.0 mi ESE 23.0 mph 27.6 mph N/A   Clear
11:35 AM 62.6 °F - 15.8 °F 16% 30.31 in 10.0 mi ESE 18.4 mph 28.8 mph N/A   Clear
11:55 AM 62.6 °F - 15.8 °F 16% 30.31 in 10.0 mi SE 18.4 mph 25.3 mph N/A   Clear
12:15 PM 62.6 °F - 12.2 °F 14% 30.30 in 10.0 mi ESE 21.9 mph 27.6 mph N/A   Clear
12:35 PM 62.6 °F - 14.0 °F 15% 30.29 in 9.0 mi ESE 20.7 mph 26.5 mph N/A   Clear
12:55 PM 64.4 °F - 14.0 °F 14% 30.29 in 10.0 mi ESE 18.4 mph 25.3 mph N/A   Clear
1:15 PM 64.4 °F - 14.0 °F 14% 30.28 in 8.0 mi ESE 18.4 mph 26.5 mph N/A   Clear
1:35 PM 66.2 °F - 14.0 °F 13% 30.27 in 10.0 mi ESE 15.0 mph 20.7 mph N/A   Clear
1:55 PM 64.4 °F - 14.0 °F 14% 30.26 in 10.0 mi ESE 16.1 mph 21.9 mph N/A   Clear
2:15 PM 66.2 °F - 14.0 °F 13% 30.26 in 9.0 mi SE 16.1 mph 21.9 mph N/A   Clear
2:35 PM 66.2 °F - 14.0 °F 13% 30.25 in 10.0 mi ESE 13.8 mph 20.7 mph N/A   Clear
2:55 PM 64.4 °F - 14.0 °F 14% 30.24 in 10.0 mi ESE 13.8 mph 18.4 mph N/A   Clear
3:15 PM 66.2 °F - 14.0 °F 13% 30.23 in 9.0 mi SE 15.0 mph 20.7 mph N/A   Clear
3:35 PM 66.2 °F - 12.2 °F 12% 30.23 in 10.0 mi SE 8.1 mph 17.3 mph N/A   Clear
3:55 PM 66.2 °F - 15.8 °F 14% 30.23 in 10.0 mi ESE 13.8 mph 17.3 mph N/A   Clear
4:15 PM 66.2 °F - 14.0 °F 13% 30.22 in 10.0 mi SE 12.7 mph 17.3 mph N/A   Clear
4:35 PM 64.4 °F - 14.0 °F 14% 30.22 in 10.0 mi SE 6.9 mph - N/A   Clear
4:55 PM 64.4 °F - 14.0 °F 14% 30.22 in 10.0 mi ESE 9.2 mph - N/A   Clear
5:15 PM 64.4 °F - 14.0 °F 14% 30.21 in 10.0 mi ESE 8.1 mph - N/A   Clear
5:35 PM 64.4 °F - 12.2 °F 13% 30.21 in 10.0 mi SE 10.4 mph - N/A   Clear
5:55 PM 62.6 °F - 14.0 °F 15% 30.21 in 10.0 mi SE 6.9 mph - N/A   Clear
6:15 PM 62.6 °F - 15.8 °F 16% 30.21 in 10.0 mi SE 8.1 mph - N/A   Clear
6:35 PM 59.0 °F - 19.4 °F 22% 30.21 in 10.0 mi SE 6.9 mph - N/A   Clear
6:55 PM 57.2 °F - 21.2 °F 25% 30.21 in 9.0 mi SE 4.6 mph - N/A   Clear
7:15 PM 57.2 °F - 19.4 °F 23% 30.21 in 10.0 mi SE 4.6 mph - N/A   Clear
7:35 PM 59.0 °F - 32.0 °F 36% 30.21 in 10.0 mi South 6.9 mph - N/A   Clear
7:55 PM 57.2 °F - 33.8 °F 41% 30.21 in 10.0 mi SW 6.9 mph - N/A   Clear
8:15 PM 57.2 °F - 35.6 °F 44% 30.21 in 10.0 mi SW 5.8 mph - N/A   Clear
8:35 PM 57.2 °F - 35.6 °F 44% 30.21 in 10.0 mi West 6.9 mph - N/A   Clear
8:55 PM 55.4 °F - 35.6 °F 47% 30.22 in 10.0 mi WNW 3.5 mph - N/A   Clear
9:15 PM 55.4 °F - 37.4 °F 51% 30.22 in 10.0 mi West 8.1 mph - N/A   Clear
9:35 PM 55.4 °F - 37.4 °F 51% 30.23 in 10.0 mi West 6.9 mph - N/A   Clear
9:55 PM 53.6 °F - 37.4 °F 54% 30.23 in 10.0 mi West 4.6 mph - N/A   Clear
10:15 PM 53.6 °F - 37.4 °F 54% 30.23 in 10.0 mi WSW 5.8 mph - N/A   Clear
10:35 PM 50.0 °F - 35.6 °F 58% 30.23 in 10.0 mi Calm Calm - N/A   Clear
10:55 PM 50.0 °F - 35.6 °F 58% 30.23 in 10.0 mi NW 4.6 mph - N/A   Clear
11:15 PM 50.0 °F - 35.6 °F 58% 30.23 in 10.0 mi WNW 3.5 mph - N/A   Clear
11:35 PM 48.2 °F - 35.6 °F 62% 30.23 in 10.0 mi North 3.5 mph - N/A   Clear
11:55 PM 48.2 °F - 33.8 °F 58% 30.23 in 10.0 mi NNW 3.5 mph - N/A   Clear
12:15 AM 48.2 °F - 33.8 °F 58% 30.22 in 10.0 mi North 3.5 mph - N/A   Clear
12:35 AM 46.4 °F 44.3 °F 33.8 °F 62% 30.22 in 10.0 mi NW 4.6 mph - N/A   Clear
12:55 AM 46.4 °F 44.3 °F 32.0 °F 57% 30.21 in 10.0 mi West 4.6 mph - N/A   Clear